sat.trackr.live / text

‹ back to catalog

CHUTIAN-2 A

NORAD 66409 · 2025-256A

PAYLOAD ACTIVE UNKNOWN

§ Identity

Operator
Country
PRC
Launch date
2025-11-09
Launch site
JSC
Launch vehicle
Mass (kg)
RCS (m²)

External: N2YO · Heavens-Above · Gunter

§ Orbital elements

Epoch: 2026-09-19T23:12:18.016416Z

Period
99.29 min
Inclination
98.2424°
Eccentricity
0.0014404
Mean motion
14.50278832 rev/d
Perigee alt
714.5 km
Apogee alt
735.0 km
Semi-major
7,102.9 km
B*
7.7204e-5
RAAN
327.1980°
Arg perigee
44.6755°
Mean anomaly
315.5597°
Rev number
4,563

§ Raw data

CHUTIAN-2 A1 66409U 25256A   26262.96687519  .00000257  00000+0  77204-4 0  99912 66409  98.2424 327.1980 0014404  44.6755 315.5597 14.50278832 45633

JSON: /api/v1/satellites/66409 · /tle

For live sub-satellite position, see the globe view (requires WebGL).

§ Visibility from observer

Set your observer location to see the next 7 days of passes ≥ 10°. The values pass through the URL so the page stays shareable.

No JS? Fill the form by hand. The geolocation button needs JavaScript.